Tracking 35334 objects as of 13-Sep-2026
HD Live streaming from Space Station
objects crossing your sky now

SL-12 DEB


SL-12 DEB is no longer on orbit


NORAD ID: 28768
Int'l Code: 2002-037BP
Launch date: July 25, 2002
Source: Commonwealth of Independent States (former USSR) (CIS)
Launch site: TYURATAM MISSILE AND SPACE COMPLEX (TTMTR)
Decay date: 2005-08-18

Note: This is SATELLITE DEBRIS
Your satellite tracking list
Your tracking list is empty




NASA's NSSDC Master Catalog

Two Line Element Set (TLE):
1 28768U 02037BP  05230.08646006  .10657629  76609-5  10340-1 0  9991
2 28768 063.5473 244.1952 0072968 103.7649 256.4421 16.05471332  6800
Source of the keplerian elements: AFSPC